Location: Banska Bystrica
(48.7333°N, 19.1500°E)
Time: 12:38:37
(UTC+01:00)

ISS - Visible Passes

Search period start: 17 December 2018 00:00
Search period end: 27 December 2018 00:00
Orbit: 401 x 408 km, 51.6° (Epoch: 18 December)

Date Brightness Start Highest point End Pass type
(mag) Time Alt. Az. Time Alt. Az. Time Alt. Az.
23 Dec -0.5 06:14:11 10° SSE 06:15:54 14° SE 06:17:37 10° ESE visible
24 Dec -2.4 06:56:34 10° SW 06:59:41 41° SSE 07:02:49 10° ENE visible
25 Dec -1.6 06:04:45 10° SSW 06:07:33 26° SE 06:10:21 10° E visible
26 Dec -0.9 05:13:20 10° S 05:15:28 16° SE 05:17:36 10° E visible
26 Dec -3.6 06:48:14 10° WSW 06:51:31 76° SSE 06:54:49 10° ENE visible
